Location: Cucq
(50.4773°N, 1.6202°E)
Time: 09:16:24
(UTC+00:00)

Cosmos 44 Rocket - Pass Details

Date: 07 August 2020
Orbit: 647 x 743 km, 65.1° (Epoch: 20 September)

Event Time Altitude Azimuth Distance (km) Brightness Sun altitude
Rises 00:46:56 0° 318° (NW) 3,085 7.1 -22.4°
Reaches altitude 10° 00:49:15 10° 316° (NW) 2,179 6.3 -22.3°
Maximum altitude 00:54:12 71° 234° (SW) 762 3.2 -22.1°
Enters shadow 00:55:10 56° 175° (S) 860 3.4 -22.1°
